Terug naar catalogus

USA 40 R/B DEB

LostHEO
NORAD 23376·DEBRIS·🇺🇸 United States

Gelanceerd Aug 8, 1989 vanaf Cape Canaveral Space Force Station

Loading…

Volgende Passages (komende 24 uur)

TLE

VerouderdSource: Space-Track

Epoch: Feb 11, 2022, 03:18 UTC

1 23376U 89061AY  22042.13766296  .00026066  00000-0  17948-1 0  9995
2 23376  56.9692 201.9510 2758034 153.8584 223.2664  9.34773802101663

Volg USA 40 R/B DEB in realtime met AllMySat

Download on the App Store